This demonstration page uses our WeatherBlox Daily Observations layout. Learn more.

Left ArrowRight Arrow

31.84235, -102.49876

Hourly Observations for March 26, 2018

Temp ( °F °C ) Dew Point ( °F °C ) Humidity (%) Winds ( mph kmh ) Pressure ( in mb ) Visibility ( mi km ) Precip ( " mm )
12:53 am 00:53 Clear 75 23.9 31 -0.6 20 20 W 9 15 29.68 1005 10 16 0.00 0.00
1:53 am 01:53 Clear 71 21.7 32 0 24 24 WSW 5 7 29.67 1005 10 16 0.00 0.00
3:53 am 03:53 Clear 71 21.7 58 14.4 63 63 S 13 20 29.67 1005 10 16 0.00 0.00
4:53 am 04:53 Clear 70 21.1 62 16.7 76 76 SSW 17 28 29.68 1005 10 16 0.00 0.00
5:53 am 05:53 Clear 67 19.4 63 17.2 87 87 SSW 10 17 29.69 1006 10 16 0.00 0.00
6:53 am 06:53 Clear 66 18.9 63 17.2 90 90 SSW 10 17 29.71 1006 8 13 0.00 0.00
7:07 am 07:07 Partly Cloudy 66 18.9 63 17.2 90 90 S 10 17 29.74 1007 8 13 0.00 0.00
7:53 am 07:53 Partly Cloudy with Mist and Fog 65 18.3 63 17.2 93 93 undefined N/A 29.72 1007 6 10 0.00 0.00
8:34 am 08:34 Partly Cloudy with Mist and Fog 66 18.9 64 17.8 93 93 SSW 8 13 29.77 1008 6 10 0.00 0.00
8:53 am 08:53 Partly Cloudy with Mist and Fog 67 19.4 64 17.8 91 91 S 10 17 29.75 1008 6 10 0.00 0.00
9:53 am 09:53 Sunny 69 20.6 63 17.2 81 81 SSW 9 15 29.77 1008 8 13 0.00 0.00
10:43 am 10:43 Mostly Sunny 70 21.1 63 17.2 79 79 W 7 11 29.74 1007 9 14 0.00 0.00
10:53 am 10:53 Mostly Sunny 71 21.7 63 17.2 76 76 WNW 8 13 29.76 1008 9 14 0.00 0.00
11:53 am 11:53 Sunny 76 24.4 53 11.7 45 45 N 10 17 29.75 1008 10 16 0.00 0.00
12:53 pm 12:53 Sunny 77 25 43 6.1 30 30 N 6 9 29.75 1008 10 16 0.00 0.00
1:53 pm 13:53 Sunny 79 26.1 37 2.8 22 22 NNE 10 17 29.73 1007 10 16 0.00 0.00
2:27 pm 14:27 Mostly Sunny 80 26.7 38 3.3 22 22 NNW 9 15 29.65 1004 10 16 0.00 0.00
2:53 pm 14:53 Mostly Sunny 80 26.7 38 3.3 22 22 NNE 7 11 29.71 1006 10 16 0.00 0.00
3:53 pm 15:53 Sunny 81 27.2 40 4.4 23 23 NE 7 11 29.68 1005 10 16 0.00 0.00
4:53 pm 16:53 Sunny 82 27.8 41 5 23 23 VRB 6 9 29.67 1005 10 16 0.00 0.00
5:53 pm 17:53 Cloudy 77 25 47 8.3 35 35 undefined N/A 29.71 1006 10 16 0.00 0.00
6:53 pm 18:53 Sunny 74 23.3 51 10.6 45 45 SE 5 7 29.74 1007 10 16 0.00 0.00
7:45 pm 19:45 Sunny 73 22.8 36 2.2 26 26 NW 14 22 29.74 1007 10 16 0.00 0.00
7:53 pm 19:53 Sunny 73 22.8 36 2.2 26 26 NW 15 24 29.75 1008 10 16 0.00 0.00
8:53 pm 20:53 Clear 71 21.7 35 1.7 27 27 NNW 13 20 29.81 1009 10 16 0.00 0.00
9:53 pm 21:53 Partly Cloudy 68 20 38 3.3 33 33 WNW 12 19 29.85 1011 10 16 0.00 0.00
10:53 pm 22:53 Clear 66 18.9 39 3.9 37 37 W 12 19 29.84 1011 10 16 0.00 0.00
11:53 pm 23:53 Clear 66 18.9 38 3.3 36 36 WNW 21 33 29.83 1010 8 13 0.00 0.00

Powered by AerisWeather